0 HST 1 20580U 90037B 25269.16399598 .00011032 00000-0 40219-3 0 9994 2 20580 28.4674 79.9171 0002756 96.0742 264.0167 15.26502301748123 0 ISS (ZARYA) 1 25544U 98067A 25268.88924235 .00024001 00000-0 42185-3 0 9994 2 25544 51.6319 167.9312 0003311 8.6325 351.4720 15.50358116530788 0 CXO 1 25867U 99040B 25269.92889251 .00000947 00000-0 00000-0 0 9998 2 25867 51.5121 125.4703 8263672 310.4534 0.4622 0.37804985 16321